EW9744 Weather Reports


Display with metric or nautical units.
time (UTC)temp
F
wind
direction
speed
MPH
gust
MPH
rain 1hr
in
rain 24hr
in
rain mn
in
humidity
%
barometer
mb
20260903073030 48 271 4.0 7.0 0.01 0.35 0.01 96 1011.7
20260903071531 48 273 4.0 6.0 0.01 0.35 0.01 96 1011.6
20260903070029 49 283 4.0 9.0 0.01 0.35 0.00 96 1011.8
20260903064529 49 239 2.0 7.0 0.00 0.34 0.34 96 1011.9
20260903063038 49 287 1.0 4.0 0.00 0.34 0.34 96 1011.9
20260903061530 49 292 3.0 5.0 0.00 0.34 0.34 96 1011.9
20260903060030 49 291 3.0 4.0 0.00 0.34 0.34 96 1011.9
20260903054531 48 302 3.0 7.0 0.00 0.34 0.34 96 1011.9
20260903053029 49 292 4.0 5.0 0.00 0.34 0.34 96 1011.8
20260903051532 49 270 3.0 5.0 0.00 0.34 0.34 95 1011.7
20260903044536 50 320 1.0 5.0 0.00 0.34 0.34 95 1011.5
20260903043030 50 280 2.0 5.0 0.00 0.34 0.34 95 1011.4
20260903040030 52 280 3.0 5.0 0.00 0.34 0.34 95 1010.9
20260903034646 53 295 3.0 7.0 0.00 0.34 0.34 95 1010.8
20260903033031 54 276 2.0 4.0 0.00 0.34 0.34 96 1010.8
20260903024531 54 180 0.0 3.0 0.07 0.34 0.34 96 1010.6
20260903023031 55 180 0.0 4.0 0.10 0.34 0.33 95 1010.5
20260903020147 55 6 2.0 6.0 0.08 0.32 0.27 95 1010.2
20260903014531 55 25 2.0 5.0 0.03 0.27 0.24 95 1009.9
20260903013031 55 90 0.0 3.0 0.01 0.24 0.24 95 1010.0
20260903011536 55 46 0.0 3.0 0.03 0.24 0.24 94 1010.0
20260903010031 55 19 0.0 3.0 0.05 0.24 0.23 94 1010.2
20260903003104 55 22 0.0 2.0 0.07 0.23 0.21 94 1010.2
20260903001529 55 22 1.0 3.0 0.06 0.21 0.19 93 1010.1
20260903000027 56 34 2.0 5.0 0.04 0.19 0.18 93 1010.0
20260902234533 56 52 1.0 5.0 0.04 0.18 0.16 92 1010.1
20260902233031 57 78 1.0 4.0 0.02 0.16 0.15 91 1010.2
20260902231530 56 63 1.0 5.0 0.02 0.15 0.15 91 1010.3
20260902230029 56 21 2.0 5.0 0.03 0.15 0.14 91 1010.4
20260902224528 56 7 2.0 6.0 0.03 0.14 0.14 91 1010.2
20260902221608 55 338 2.0 5.0 0.05 0.13 0.12 91 1010.3
20260902220030 56 351 3.0 5.0 0.06 0.12 0.11 91 1010.1
20260902214533 56 355 2.0 6.0 0.07 0.11 0.09 90 1010.0
20260902213033 57 14 2.0 6.0 0.06 0.09 0.08 90 1010.0
20260902210032 57 122 0.0 4.0 0.05 0.06 0.04 89 1010.2
20260902204532 58 112 0.0 3.0 0.03 0.04 0.03 88 1010.1
20260902203030 58 8 0.0 4.0 0.02 0.03 0.02 85 1010.3
20260902201606 58 290 1.0 4.0 0.02 0.02 0.01 83 1010.3
20260902200031 59 301 2.0 4.0 0.01 0.01 0.01 81 1010.3
20260902194530 59 276 2.0 5.0 0.01 0.01 0.01 78 1010.3
20260902193146 59 285 2.0 5.0 0.01 0.01 0.00 75 1010.4
20260902191531 61 39 0.0 4.0 0.00 0.00 0.00 72 1010.4
20260902184607 62 149 0.0 3.0 0.00 0.00 0.00 68 1010.3
20260902183032 61 319 1.0 5.0 0.00 0.00 0.00 69 1010.2
20260902181531 61 37 2.0 5.0 0.00 0.00 0.00 70 1010.2
20260902180030 61 40 2.0 7.0 0.00 0.00 0.00 70 1010.3
20260902174530 61 70 1.0 5.0 0.00 0.00 0.00 69 1010.3
20260902173031 61 44 1.0 6.0 0.00 0.00 0.00 68 1010.4
20260902164529 59 133 1.0 6.0 0.00 0.00 0.00 76 1010.8
20260902161531 58 155 1.0 5.0 0.00 0.00 0.00 77 1011.0
20260902160030 58 144 1.0 4.0 0.00 0.00 0.00 77 1011.2
20260902154608 56 181 0.0 3.0 0.00 0.00 0.00 80 1011.2
20260902153030 56 185 1.0 5.0 0.00 0.00 0.00 81 1011.4
20260902151531 55 154 1.0 4.0 0.00 0.00 0.00 81 1011.4
20260902150029 55 312 0.0 3.0 0.00 0.00 0.00 81 1011.5
20260902143029 54 96 0.0 3.0 0.00 0.00 0.00 82 1011.9
20260902141530 54 149 0.0 2.0 0.00 0.00 0.00 82 1011.9
20260902140032 53 158 0.0 3.0 0.00 0.00 0.00 82 1011.8
20260902134530 54 124 2.0 6.0 0.00 0.00 0.00 81 1011.8
20260902133032 53 316 5.0 12.0 0.00 0.00 0.00 83 1011.8
20260902130147 52 282 4.0 8.0 0.00 0.00 0.00 84 1012.0
20260902124539 52 281 5.0 8.0 0.00 0.00 0.00 82 1012.0
20260902123033 53 307 5.0 10.0 0.00 0.00 0.00 80 1012.1
20260902121531 53 306 3.0 6.0 0.00 0.00 0.00 79 1012.2
20260902120029 53 305 3.0 7.0 0.00 0.00 0.00 81 1012.1
20260902114646 53 311 5.0 8.0 0.00 0.00 0.00 81 1012.4
20260902111603 54 308 5.0 13.0 0.00 0.00 0.00 80 1012.3
20260902110030 54 297 5.0 12.0 0.00 0.00 0.00 80 1012.3
20260902104606 54 299 5.0 10.0 0.00 0.00 0.00 80 1012.5
20260902100031 55 309 5.0 14.0 0.00 0.00 0.00 80 1012.8
20260902094606 55 313 6.0 14.0 0.00 0.00 0.00 81 1012.9
20260902093031 55 328 5.0 10.0 0.00 0.00 0.00 81 1013.1
20260902090108 55 313 5.0 10.0 0.00 0.00 0.00 80 1013.0
20260902083033 54 277 3.0 6.0 0.00 0.00 0.00 81 1013.1
20260902081530 53 286 3.0 7.0 0.00 0.00 0.00 81 1013.0
20260902080028 54 276 2.0 5.0 0.00 0.00 0.00 80 1013.2